Location: *
(21.1830°S, 163.5700°W)
Time: 07:21:46
(UTC+00:00)

Daily predictions for brighter satellites

Satellite Brightness Start Highest point End
(mag) Time Altitude Azimuth Time Altitude Azimuth Time Altitude Azimuth
Atlas Centaur 2 4.4 14:15:17 24° ESE 14:15:17 24° ESE 14:17:57 10° ESE
CZ-3 Stage 3 3.9 14:22:24 48° SE 14:22:24 48° SE 14:38:07 10° E
ADEOS Rocket 3.9 14:29:30 10° NNE 14:34:25 50° ENE 14:34:25 50° ENE
SL-16 R/B 3.9 14:44:12 10° SSE 14:53:46 28° N 14:56:28 10° N
BREEZE-M DEB (TANK) 3.9 14:57:25 69° N 14:58:13 78° NE 15:16:09 10° SE
ACS3 Solar Sail 3.9 15:00:10 10° ENE 15:04:45 22° ESE 15:09:26 10° SSE
SL-16 R/B 3.4 15:10:30 32° SSE 15:10:30 32° SSE 15:13:26 10° SSE
DELTA 2 R/B (1) 3.9 15:14:24 56° N 15:14:59 60° NE 15:20:31 10° ESE
CZ-3 R/B 3.9 15:11:10 38° W 15:20:15 52° NW 15:29:40 10° NNE
Cosmos 1763 Rocket 4.4 15:15:45 10° N 15:20:36 46° E 15:25:26 10° SSE
USA 307 4.1 15:26:39 31° ENE 15:26:39 31° ENE 15:28:57 10° NE
Cosmos 2278 Rocket 2.0 15:30:09 65° SW 15:30:59 80° WNW 15:36:37 10° NNE
Cosmos 1943 Rocket 2.0 15:34:03 50° SSW 15:35:35 84° WNW 15:41:07 10° NNE
Cosmos 332 Rocket 4.1 15:37:36 49° NW 15:37:36 49° NW 15:41:28 10° N
Lacrosse 4 Rocket 2.9 15:35:38 10° N 15:39:34 38° ENE 15:43:30 10° SE
SL-08 ROCKET BODY 4.3 15:36:02 11° S 15:41:44 89° W 15:47:45 10° N
CBERS-1 3.9 15:38:55 10° NNE 15:44:02 89° E 15:47:37 20° SSW
Delta 202 3.9 15:44:01 37° WNW 15:46:17 64° N 15:51:31 10° E
Cosmos 540 Rocket 3.6 15:41:55 10° N 15:46:59 73° ENE 15:52:04 10° SSE
COSMOS 2455 3.1 15:48:13 42° WSW 15:48:29 42° WSW 15:54:11 10° S
Cosmos 972 Rocket 4.4 15:44:28 12° S 15:49:01 61° ESE 15:54:13 10° NNE
GEOS 3 Rocket 4.4 15:46:01 10° S 15:49:25 31° SSW 15:49:25 31° SSW
Cosmos 1943 3.6 15:48:23 10° N 15:53:58 64° ENE 15:59:36 10° SSE
Centaur AC-42 4.0 15:50:45 11° NW 15:54:14 33° NNE 16:03:02 10° E
Cosmos 1869 2.9 15:52:19 10° N 15:56:00 75° W 15:59:45 10° S
Cosmos 292 Rocket 3.6 15:56:01 19° SSW 15:59:22 90° WNW 16:04:06 10° NNE
Atlas Centaur 2 2.6 15:57:18 30° WSW 16:01:01 69° SSE 16:06:54 10° ENE
Cosmos 1975 Rocket 4.5 16:07:10 21° WNW 16:07:10 21° WNW 16:09:14 10° NW
Cosmos 1655 Rocket 4.5 16:03:43 10° S 16:09:55 63° E 16:16:03 10° NNE
NATO 3D Rocket 3.4 16:07:18 27° W 16:10:14 73° N 16:14:57 10° ENE
Okean 1 Rocket 3.0 16:06:31 10° NNW 16:10:55 65° W 16:15:23 10° S
Cosmos 909 Rocket 4.4 16:07:39 10° NW 16:13:31 43° WSW 16:19:55 10° S
Thor Agena Rocket 4.1 16:09:50 10° NNW 16:14:39 36° W 16:18:13 17° SW
IRAS Rocket 4.2 16:18:08 10° N 16:23:37 69° WNW 16:29:07 10° SSW
Cosmos 2369 Rocket 4.1 16:20:45 10° S 16:25:31 28° ESE 16:30:18 10° NE
Cosmos 1656 Rocket 4.3 16:22:43 10° S 16:28:14 58° ESE 16:33:45 10° NNE
Cosmos 1666 3.6 16:29:21 14° NW 16:29:21 14° NW 16:30:01 10° NW
SJ-12 3.7 16:25:37 10° NNE 16:29:29 90° WNW 16:33:24 10° SSW
Cosmos 2266 Rocket 4.3 16:24:19 10° SSW 16:30:03 41° W 16:35:40 10° NNW
H-2A R/B 3.9 16:25:23 17° WSW 16:30:29 82° SSE 17:42:28 10° ENE
Fermi 3.7 16:29:11 19° W 16:31:58 75° NNW 16:35:54 10° ENE
IRS-P3 4.3 16:30:25 10° NNE 16:35:44 82° ESE 16:41:07 10° S
Milstar 3 Cent rocket 3.2 16:32:42 15° WSW 16:36:59 46° S 16:45:37 10° E
Okean 2 Rocket 4.4 16:34:23 10° NW 16:37:41 20° W 16:40:59 10° SSW
IGS 5A 3.5 16:34:25 10° NNE 16:38:25 77° ESE 16:42:27 10° S
ARIANE 5 R/B 2.5 16:34:08 10° N 16:39:03 61° W 16:44:00 10° SSW
GPS 2-15 Rocket1 4.1 16:35:03 12° W 16:39:16 40° NNW 16:43:49 10° NE
Intelsat 5-1 Rocket 3.7 16:40:10 10° WNW 16:41:17 11° NW 16:42:15 10° NNW
Cosmos 1486 Rocket 4.4 16:36:29 10° SSW 16:41:26 42° W 16:46:17 10° N
ATLAS 5 CENTAUR R/B 2.0 16:38:27 10° SSW 16:43:07 58° ESE 16:46:52 10° NE
Cosmos 1812 2.1 16:40:17 10° N 16:43:28 76° W 16:46:43 10° S
SJ-6F 4.4 16:40:56 10° NNE 16:44:55 90° ESE 16:48:56 10° SSW
Longmarch 3A Rocket 3.5 16:28:26 14° WSW 16:44:55 76° S 16:49:00 10° E
Cosmos 1354 Rocket 4.2 16:41:08 10° SSW 16:46:29 80° ESE 16:51:46 10° NNE
ATLAS CENTAUR R/B 2.5 16:44:25 10° N 16:47:41 39° ENE 16:50:51 10° SE
ACS3 Solar Sail 2.4 16:42:05 10° NNW 16:47:43 38° W 16:53:29 10° SSW
Cosmos 2058 2.8 16:45:17 10° SSW 16:49:13 60° W 16:53:08 10° N
SKYMED 2 3.7 16:45:49 10° SSE 16:50:13 85° E 16:54:33 10° N
AQUARIUS 4.4 16:48:20 10° NNE 16:52:44 73° ESE 16:57:11 10° S
COSMO-SKYMED 1 2.5 16:48:48 10° SSE 16:53:06 90° NW 16:57:19 10° NNW
Cosmos 2098 Rocket 2.4 16:51:00 10° N 16:54:51 74° W 16:58:10 10° S
Cosmos 1536 Rocket 4.5 16:52:22 10° SSW 16:56:15 29° W 17:00:03 10° NNW
PSLV R/B 4.4 16:55:03 10° NNE 16:59:05 51° ESE 17:03:07 10° S
Cosmos 1340 Rocket 4.2 16:56:33 10° WNW 16:59:13 18° W 17:01:54 10° SW
DELTA 2 R/B (1) 4.5 16:56:36 10° W 17:01:31 31° SSW 17:06:29 10° SE
FALCON 9 R/B 4.3 16:45:10 10° WSW 17:22:08 68° NNW 17:29:50 10° NE
